This demonstration page uses our WeatherBlox Daily Observations layout. Learn more.

Left ArrowRight Arrow

40.92501, -98.34201

Hourly Observations for August 24, 2022

Temp ( °F °C ) Dew Point ( °F °C ) Humidity (%) Winds ( mph kmh ) Pressure ( in mb ) Visibility ( mi km ) Precip ( " mm )
12:53 am 00:53 Clear 72 22.2 60 15.6 66 66 S 10 17 29.97 1015 10 16 0.00 0.00
1:53 am 01:53 Clear 73 22.8 58 14.4 59 59 SSW 12 19 29.97 1015 10 16 0.00 0.00
2:53 am 02:53 Clear 73 22.8 57 13.9 57 57 S 16 26 29.95 1014 10 16 0.00 0.00
3:53 am 03:53 Clear 72 22.2 58 14.4 61 61 S 13 20 29.97 1015 10 16 0.00 0.00
4:53 am 04:53 Clear 71 21.7 57 13.9 61 61 SSW 12 19 29.98 1015 10 16 0.00 0.00
5:53 am 05:53 Clear 68 20 57 13.9 68 68 SW 5 7 30.00 1016 10 16 0.00 0.00
6:53 am 06:53 Mostly Sunny 65 18.3 58 14.4 78 78 N 3 6 30.04 1017 10 16 0.00 0.00
7:53 am 07:53 Mostly Cloudy 65 18.3 58 14.4 78 78 Calm 30.06 1018 10 16 0.00 0.00
8:53 am 08:53 Mostly Cloudy 72 22.2 58 14.4 61 61 SSW 5 7 30.06 1018 10 16 0.00 0.00
9:53 am 09:53 Sunny 79 26.1 57 13.9 47 47 SSW 7 11 30.04 1017 10 16 0.00 0.00
10:53 am 10:53 Sunny 83 28.3 57 13.9 41 41 SSW 10 17 30.05 1018 10 16 0.00 0.00
11:53 am 11:53 Sunny 87 30.6 56 13.3 35 35 VRB 7 11 30.04 1017 10 16 0.00 0.00
12:53 pm 12:53 Sunny 88 31.1 57 13.9 35 35 Calm 30.04 1017 10 16 0.00 0.00
1:53 pm 13:53 Sunny 90 32.2 58 14.4 34 34 SW 7 11 30.02 1017 10 16 0.00 0.00
2:53 pm 14:53 Sunny 90 32.2 60 15.6 37 37 S 7 11 30.01 1016 10 16 0.00 0.00
3:53 pm 15:53 Sunny 92 33.3 54 12.2 28 28 S 9 15 30.00 1016 10 16 0.00 0.00
4:53 pm 16:53 Sunny 92 33.3 57 13.9 31 31 S 8 13 29.99 1016 10 16 0.00 0.00
5:53 pm 17:53 Sunny 91 32.8 57 13.9 32 32 VRB 7 11 29.98 1015 10 16 0.00 0.00
6:53 pm 18:53 Sunny 88 31.1 62 16.7 42 42 SE 9 15 29.98 1015 10 16 0.00 0.00
7:53 pm 19:53 Sunny 83 28.3 64 17.8 53 53 SSE 7 11 29.99 1016 10 16 0.00 0.00
8:53 pm 20:53 Clear 78 25.6 65 18.3 64 64 ESE 5 7 30.01 1016 10 16 0.00 0.00
9:53 pm 21:53 Clear 76 24.4 64 17.8 67 67 SSE 6 9 30.01 1016 10 16 0.00 0.00
10:53 pm 22:53 Clear 75 23.9 64 17.8 69 69 SSE 6 9 30.02 1017 10 16 0.00 0.00
11:53 pm 23:53 Clear 75 23.9 62 16.7 64 64 S 8 13 30.01 1016 10 16 0.00 0.00

Powered by AerisWeather